Weather observations for the past three days for
Wittman Regional Airport
Imperial (Metric)
Date Time (cdt) Wind (mph) Vis. (mi.) Weather Sky Cond. Temperature (ºF) Relative Humidity Wind Chill (°F) Heat Index (°F) Pressure Precipitation (in)
Air Dwpt 6 hour altimeter (in) sea level (mb) 1 hr 3 hr 6 hr
Max. Min.
18 03:53 S 15 10.00 Fair CLR 77 68 74% 79 29.85 1008.9
18 02:53 S 10 10.00 Fair CLR 72 66 82% 29.84 1008.9
18 01:53 S 3 10.00 Fair CLR 73 68 84% 29.86 1009.3
18 00:53 S 5 10.00 Mostly Cloudy SCT065 BKN080 73 68 80.1 73 84% 29.86 1009.4
17 23:53 S 5 10.00 A Few Clouds FEW075 FEW090 75 68 79% 76 29.89 1010.6
17 22:53 S 5 10.00 Fair CLR 75.9 69.1 79% 77 29.89 1010.4
17 21:53 S 7 10.00 Fair CLR 79 70 74% 82 29.88 1010.1
17 20:53 Calm 10.00 Fair CLR 77 71.1 82% 79 29.84 1008.9
17 19:53 Calm 10.00 Fair CLR 80.1 72 76% 84 29.84 1008.8
17 18:53 E 7 10.00 Partly Cloudy FEW050 FEW070 SCT100 80.1 71.1 91 78.1 74% 84 29.84 1009.1
17 17:53 N 3 10.00 A Few Clouds FEW050 86 73 65% 93 29.83 1008.5
17 16:53 Calm 10.00 Partly Cloudy FEW031 SCT041 SCT050 79 72 79% 82 29.82 1008.5
17 15:53 S 14 G 22 10.00 Thunderstorm in Vicinity FEW055 87.1 71.1 59% 93 29.83 1008.4
17 14:53 S 14 G 26 10.00 Fair CLR 90 70 52% 95 29.85 1009.1
17 13:53 SW 12 G 21 10.00 Fair CLR 89.1 72 57% 96 29.86 1009.5
17 12:53 SW 13 G 21 10.00 Fair CLR 86 72 87.1 75 63% 92 29.87 1009.9
17 11:53 SW 12 G 22 10.00 Fair CLR 86 71.1 61% 92 29.87 1009.8
17 10:53 SW 12 G 22 10.00 Fair CLR 84.9 72 65% 91 29.87 1009.9
17 09:53 SW 13 G 25 10.00 Fair CLR 82.9 72 70% 88 29.86 1009.6
17 08:53 S 15 G 22 10.00 Mostly Cloudy SCT050 BKN060 80.1 71.1 74% 84 29.86 1009.7
17 07:53 S 12 G 22 10.00 A Few Clouds FEW050 78.1 70 76% 80 29.85 1009.2
17 06:53 S 8 10.00 Fair CLR 75 69.1 75 72 82% 75 29.84 1008.7
17 05:53 S 10 10.00 Fair CLR 73.9 68 82% 29.84 1008.7
17 04:53 S 9 10.00 Fair CLR 72 66.9 84% 29.81 1007.7
17 03:53 SW 9 10.00 Fair CLR 73.9 66.9 79% 29.81 1007.8
17 02:53 S 10 10.00 Fair CLR 73 68 84% 29.81 1007.9
17 01:53 S 10 10.00 Fair CLR 73 68 84% 29.82 1008.3
17 00:53 S 9 10.00 Fair CLR 73 66.9 84.9 72 81% 29.82 1008.5
16 23:53 S 9 10.00 Fair CLR 73 66 79% 29.82 1008.5
16 22:53 SW 8 10.00 Fair CLR 75 64.9 71% 77 29.81 1008.3
16 21:53 S 12 10.00 Fair CLR 75 64.9 71% 77 29.79 1007.6
16 20:53 S 10 10.00 Fair CLR 78.1 63 60% 80 29.76 1006.6
16 19:53 S 16 G 25 10.00 Fair CLR 82.9 69.1 63% 87 29.75 1006.2
16 18:53 S 10 G 20 10.00 Fair CLR 84.9 71.1 87.1 75.9 63% 90 29.74 1005.8 0.01
16 17:53 S 13 10.00 Fair CLR 86 71.1 61% 92 29.74 1005.6
16 16:53 S 13 G 21 10.00 A Few Clouds FEW047 87.1 73 63% 95 29.75 1005.8
16 15:53 S 14 10.00 Fair CLR 84.9 73 68% 92 29.75 1006.1 0.01
16 14:53 S 13 10.00 A Few Clouds FEW060 81 70 69% 84 29.78 1006.9
16 13:53 S 16 10.00 Partly Cloudy SCT100 78.1 68 71% 80 29.8 1007.9 0.01
16 12:53 S 16 G 24 10.00 Light Rain FEW055 FEW070 SCT120 75.9 66.9 77 63 74% 77 29.81 1008.0 0.33
16 11:53 S 18 G 29 10.00 Fair CLR 73.9 64 71% 29.79 1007.6
16 10:53 S 16 G 28 10.00 A Few Clouds FEW042 71.1 63 76% 29.82 1008.8
16 09:53 S 10 10.00 Thunderstorm SCT046 SCT055 BKN070 66 61 84% 29.86 1010.0 0.33
16 08:53 SE 16 10.00 Light Rain FEW090 BKN110 64 61 90% 29.86 1010.3 0.18
16 07:53 S 12 5.00 Rain Fog/Mist FEW070 BKN100 OVC110 64 60.1 87% 29.91 1011.9 0.15
16 06:53 S 10 G 17 0.75 Thunderstorm Heavy Rain BKN024 OVC060 64 57.9 72 64 81% 29.91 1011.9 0.39 0.39
16 05:53 S 7 10.00 Thunderstorm in Vicinity Light Rain SCT085 72 54 53% 29.87 1010.4
16 04:53 S 9 G 18 10.00 Light Rain FEW055 SCT080 OVC100 71.1 54 55% 29.86 1010.1
16 03:53 SE 8 10.00 Light Rain SCT080 OVC100 70 55.9 61% 29.88 1010.6
16 02:53 SE 9 10.00 Mostly Cloudy BKN100 BKN120 70 55 59% 29.9 1011.2
16 01:53 SE 10 10.00 Overcast OVC110 72 55 55% 29.91 1011.8
16 00:53 SE 12 G 22 10.00 Partly Cloudy SCT100 72 55 72 70 55% 29.93 1012.1
15 23:53 SE 10 10.00 Partly Cloudy SCT100 71.1 55 57% 29.94 1012.6
15 22:53 SE 9 10.00 Overcast FEW075 OVC110 71.1 57 61% 29.96 1013.2
15 21:53 SE 6 10.00 Overcast OVC100 71.1 55.9 59% 29.96 1013.5
15 20:53 SE 9 10.00 Overcast OVC100 71.1 55.9 59% 29.95 1013.3
15 19:53 SE 12 10.00 Overcast OVC120 72 57 59% 29.97 1013.8
15 18:53 SE 14 10.00 Partly Cloudy SCT110 72 57 77 72 59% 29.97 1014.0
15 17:53 SE 10 10.00 Fair CLR 73 57 57% 30 1015.1
15 16:53 SE 12 10.00 Partly Cloudy SCT100 72 57.9 61% 30.03 1016.4
15 15:53 SE 16 10.00 Fair CLR 72 57.9 61% 30.04 1016.3
15 14:53 SE 9 10.00 Mostly Cloudy FEW040 BKN095 BKN110 73 59 62% 30.06 1017.1
15 13:53 SE 14 10.00 Fair CLR 73.9 59 60% 30.07 1017.2
15 12:53 SE 12 10.00 Fair CLR 75.9 59 75.9 64 56% 78 30.1 1018.3
15 11:53 SE 13 G 20 10.00 Fair CLR 75.9 60.1 58% 78 30.1 1018.5
15 10:53 E 10 10.00 Fair CLR 73 57.9 59% 30.11 1018.9
15 09:53 E 10 10.00 Fair CLR 72 55 55% 30.12 1019.3
15 08:53 E 9 10.00 Fair CLR 68 53.1 59% 30.14 1019.7
15 07:53 E 12 10.00 Fair CLR 64.9 52 63% 30.14 1019.8
15 06:53 SE 6 10.00 Fair CLR 64 54 64 55 70% 30.16 1020.2
15 05:53 Calm 10.00 Fair CLR 59 50 72% 30.15 1019.9
15 04:53 Calm 10.00 Fair CLR 57.9 48.9 72% 30.15 1019.9
Date Time (cdt) Wind (mph) Vis. (mi.) Weather Sky Cond. Air Dwpt Max. Min. Relative Humidity Wind Chill (°F) Heat Index (°F) altimeter (in) sea level (mb) 1 hr 3 hr 6 hr
6 hour
Temperature (ºF) Pressure Precipitation (in)